Regional Weather Roundup
Issued by NWS Mobile, AL

Home | Current Version | Previous Version | Text Only | Print | Product List | Glossary On
Versions: 1 2 3 4 5 6 7 8 9 10 11 12 13 14 15 16 17 18 19 20 21 22 23 24 25 26 27 28 29 30 31 32 33 34 35 36 37 38 39 40 41 42 43 44 45 46 47 48 49 50
000
ASUS44 KMOB 250712
RWRMOB
REGIONAL WEATHER ROUNDUP
NATIONAL WEATHER SERVICE MOBILE AL
200 AM CDT TUE JUL 25 2017

NOTE: "FAIR" INDICATES FEW OR NO CLOUDS BELOW 12,000 FEET WITH NO
      SIGNIFICANT WEATHER AND/OR OBSTRUCTIONS TO VISIBILITY.

  * THESE STATIONS ARE PART OF THE UNIVERSITY OF SOUTH ALABAMA
    MESONET AND ARE NOT UNDER NWS OR FAA QUALITY CONTROL.

ALZ061>064-250800-
COASTAL ALABAMA

CITY           SKY/WX    TMP DP  RH WIND       PRES   REMARKS
MOBILE REG APT FAIR      74  72  93 CALM      30.06F
BROOKLEY FIELD FAIR      75  74  96 CALM      30.07F
USA CAMPUS*      N/A     68  66  94 CALM      30.06F
DOG RIVER*     NOT AVBL


CITY           SKY/WX    TMP DP  RH WIND       PRES   REMARKS
GULF SHORES    FAIR      73  73 100 CALM      30.06F

$$

ALZ051>060-250800-
INTERIOR SOUTHWEST AND SOUTH CENTRAL ALABAMA

CITY           SKY/WX    TMP DP  RH WIND       PRES   REMARKS
GREENVILLE     FAIR      75  71  87 CALM      30.04F
EVERGREEN      MOCLDY    74  72  93 SW5       30.06S
ATMORE*        NOT AVBL
ANDALUSIA/OPP  FAIR      76  71  85 SW3       30.04F
ANDALUSIA*       N/A     73  72  94 CALM      30.05F
FLORALA APT    FAIR      74  71  91 SW3       30.07
FLORALA*         N/A     72  72 100 CALM      30.75F

$$

FLZ001>006-250800-
WESTERN FLORIDA PANHANDLE

CITY           SKY/WX    TMP DP  RH WIND       PRES   REMARKS
PENSACOLA      FAIR      78  73  84 W6        30.05F
NAS PENSACOLA  FAIR      76  73  91 W3        30.05F
MILTON         FAIR      73  73 100 W5        30.05F
WHTNG S FIELD  FAIR      76  73  91 CALM      30.05F


CITY           SKY/WX    TMP DP  RH WIND       PRES   REMARKS
JAY*             N/A     73  72  94 SW7       30.06S
DUKE FIELD     FAIR      75  71  87 CALM      30.05F
CRESTVIEW      FAIR      75  72  90 SW3       30.07S
VALPARAISO     PTCLDY    77  72  84 W6        30.05F
DESTIN         FAIR      83  73  72 CALM      30.05F

$$

MSZ076-079-250800-
INTERIOR SOUTHEAST MISSISSIPPI

CITY           SKY/WX    TMP DP  RH WIND       PRES   REMARKS
LEAKESVILLE*     N/A     73  73 100 SW5       30.06F
AGRICOLA*      NOT AVBL

$$

MARINE OBSERVATIONS

STATION/POSITION TIME  TEMP    WIND        PRES    WAVE
                       AIR SEA DIR/SP/G            HT/PER
                 (UTC) (F)     (DEG/KT/KT) (MB)    (FT/S)
PASCAGOULA       0648             CALM     1017.6F
PETIT BOIS ISLND 0648          250/  8/  9 1018.6F
GRAND BAY        0530   76     290/  2     1019.0S
KATRINA CUT      0630   80     270/  5     1018.0S
CEDAR POINT      0630   78     310/  2     1018.3S
E DAUPHIN ISLAND 0600   78     280/  3/  3 1017.9F
MIDDLE BAY LIGHT 0630   79     280/  6     1017.6F
USCG MOBILE BAY  0648          270/  1/  2 1018.4F
STATE DOCKS      0648                      1017.6F
MEAHER PARK      0630   78     220/  6     1018.3F
WEEKS BAY        0545   74                   N/A
FORT MORGAN      0648          280/  4/  5   N/A
12 S ORANGE BCH  0650   81 83  310/ 10/ 10 1017.6F   1/ 4
PENSACOLA BAY    0648                      1017.9F
64 S DAUPHIN ISL 0650   84 85  230/ 10/ 12 1018.4F   1/ 4
67 S FORT MORGAN 0630   82     250/  8     1018.3F

$$

SELECTED LOCATIONS ACROSS THE REGION

CITY           SKY/WX    TMP DP  RH WIND       PRES   REMARKS
NEW ORLEANS    MOCLDY    77  74  90 SW5       30.06F
GULFPORT       FAIR      74  73  97 CALM      30.05F
PASCAGOULA AP  FAIR      72  70  93 CALM      30.05F FOG
PASCAGOULA*      N/A    N/A N/A N/A CALM        N/A
HATTIESBURG    FAIR      74  74 100 SW6       30.05F
LAUREL         FAIR      73  73 100 CALM      30.06F
MERIDIAN       FAIR      76  75  97 CALM      30.06R
JACKSON        CLOUDY    76  75  97 SW3       30.04S
MONTGOMERY     MOCLDY    78  72  81 SW3       30.04S
TROY           MOCLDY    74  73  97 CALM      30.06S
ASHFORD*         N/A     73  72  94 CALM      30.05F
DOTHAN         MOCLDY    76  76 100 W6        30.08S
PANAMA CITY    FAIR      78  74  87 SW5       30.04F

$$




USA.gov is the U.S. government's official web portal to all federal, state and local government web resources and services.